CZ-6A DEB, 60762

Orbit data source: Space-Track

CZ-6A DEB, 60762 is space debris in LEO originally from a launch on Tue, 06 Aug 2024 UTC launched from the Taiyaun Space Center, China (TSC). Debris objects in space refer to the collection of defunct objects orbiting the Earth. Examples of debris include non-operational satellites, rocket bodies, and fragments generated from explosions, collisions, or faulty payload assembly.

Loading next visibility...
Identifier
60762, 2024-140EM
Orbit
LEO
Country
Flag of CNCN / PRC
Related business
Manufacturer
SAST
Mission
Spacecraft
Bus & Motor
Unknown
Mass
Unknown
Launch date (UTC)
2024-08-06 (1 year ago)
Launch vehicle
Unknown
Launch site
Taiyaun Space Center, China (TSC)
Object type
Payload
Rocket body
Debris
Shape & HBR
Unknown shape, 0.2 m
Radar Cross Section
Small (<0.1 m²)

Expand to show TLE details & history
Last TLE update: 11 hours ago

TLE from 11 hours ago
0 CZ-6A DEB
1 60762U 24140EM  25343.11236697  .00001648  00000-0  38999-3 0  9994
2 60762  89.0325 295.2955 0101944 211.0530 148.4628 14.50506034 70073
Epoch: 2025-12-09T02:41Z
TLE epoch observation values (Epoch: 2025-12-09T02:41:48.506Z)
Latitude
0.00003°
Longitude
176.74167°
Altitude
789.014 km
Speed
7.427 km/s
True Right ascension
19h 41m 10s
True Declination
0° 00' 00"
Sunlit
Object was in daylight at epoch
Visualization orbit readout
Latitude
Unknown
Longitude
Unknown
Altitude
Unknown
Speed
Unknown
Apparent Right ascension
Unknown
Apparent Declination
Unknown
Sunlit
N/A
Visualization observer readout
Local Sidereal Time
12:05:54
Azimuth
Unknown
Elevation
Unknown
Doppler factor
Unknown
Orbital elements
Apogee altitude
793.274 km
Perigee altitude
648.533 km
Semi-major axis
7,099.04 km
Eccentricity
0.01019
Inclination
89.0325°
RAAN
295.2955°
Arg. of periapsis
211.053°
True anomaly
149.06725°
Mean anomaly
148.4628°
Eccentric anomaly
148.76568°
Mean motion
3.62864 °/min
Orbital period
99.21 mins
BSTAR
0.00038999
Loading maneuver chart data...
Computing Atmospheric mass density...
Loading historical data...
Loading historical data...
Loading historical data...
Loading historical data...
Loading historical data...
Loading historical data...
Loading historical data...

Documentation

Showing up to 5 results
|